FW1480 Weather Reports


Display with metric or nautical units.
time (UTC)temp
F
wind
direction
speed
MPH
gust
MPH
rain 1hr
in
rain 24hr
in
rain mn
in
humidity
%
barometer
mb
20260904232125 70 69 0.0 1.0 0.00 0.00 0.00 89 1013.1
20260904231625 70 69 0.0 1.0 0.00 0.00 0.00 89 1013.1
20260904231126 70 69 0.0 1.0 0.00 0.00 0.00 88 1013.2
20260904230623 70 69 0.0 1.0 0.00 0.00 0.00 88 1013.1
20260904230118 71 69 0.0 1.0 0.00 0.00 0.00 88 1013.3
20260904225617 71 69 0.0 0.0 0.00 0.00 0.00 88 1013.3
20260904225116 71 69 0.0 0.0 0.00 0.00 0.00 87 1013.2
20260904224617 71 69 0.0 1.0 0.00 0.00 0.00 87 1013.3
20260904224117 71 69 0.0 1.0 0.00 0.00 0.00 86 1013.3
20260904223617 71 69 0.0 1.0 0.00 0.00 0.00 85 1013.3
20260904223117 72 69 0.0 0.0 0.00 0.00 0.00 84 1013.3
20260904222616 72 69 0.0 0.0 0.00 0.00 0.00 83 1013.2
20260904222118 73 69 0.0 0.0 0.00 0.00 0.00 82 1013.2
20260904221617 73 69 0.0 0.0 0.00 0.00 0.00 80 1013.2
20260904221117 74 69 0.0 0.0 0.00 0.00 0.00 78 1013.2
20260904215118 75 82 0.0 1.0 0.00 0.00 0.00 75 1013.1
20260904214613 75 82 0.0 1.0 0.00 0.00 0.00 75 1013.0
20260904214112 75 82 0.0 1.0 0.00 0.00 0.00 73 1013.0
20260904213613 75 104 0.0 0.0 0.00 0.00 0.00 78 1013.0
20260904213113 74 104 0.0 0.0 0.00 0.00 0.00 77 1013.0
20260904212613 74 103 0.0 0.0 0.00 0.00 0.00 78 1013.0
20260904212107 74 103 0.0 0.0 0.00 0.00 0.00 79 1012.9
20260904211601 73 103 0.0 0.0 0.00 0.00 0.00 79 1013.1
20260904211055 73 103 0.0 0.0 0.00 0.00 0.00 79 1013.1
20260904210549 73 103 0.0 0.0 0.00 0.00 0.00 79 1013.0
20260904210042 74 104 0.0 0.0 0.00 0.00 0.00 80 1013.1
20260904205537 74 103 0.0 0.0 0.00 0.00 0.00 79 1013.2
20260904205030 75 103 0.0 0.0 0.00 0.00 0.00 78 1013.2
20260904204524 75 104 0.0 0.0 0.00 0.00 0.00 77 1013.2
20260904204019 76 103 0.0 0.0 0.00 0.00 0.00 74 1013.3
20260904203513 76 104 0.0 0.0 0.00 0.00 0.00 72 1013.3
20260904203007 77 104 0.0 2.0 0.00 0.00 0.00 72 1013.3
20260904202501 77 104 0.0 2.0 0.00 0.00 0.00 71 1013.2
20260904201954 78 8 0.0 1.0 0.00 0.00 0.00 72 1013.3
20260904201448 78 7 0.0 3.0 0.00 0.00 0.00 68 1013.3
20260904200437 78 164 0.0 2.0 0.00 0.00 0.00 67 1013.3
20260904195931 78 267 0.0 2.0 0.00 0.00 0.00 67 1013.3
20260904195424 78 320 0.0 4.0 0.00 0.00 0.00 68 1013.3
20260904194918 78 27 0.0 4.0 0.00 0.00 0.00 69 1013.2
20260904194413 78 78 0.0 2.0 0.00 0.00 0.00 66 1013.3
20260904193401 79 141 0.0 3.0 0.00 0.00 0.00 69 1013.4
20260904192854 79 29 0.0 3.0 0.00 0.00 0.00 66 1013.3
20260904192348 79 70 1.0 5.0 0.00 0.00 0.00 64 1013.3
20260904191843 79 61 1.0 5.0 0.00 0.00 0.00 64 1013.4
20260904191337 80 108 0.0 3.0 0.00 0.00 0.00 66 1013.5
20260904190830 80 207 1.0 5.0 0.00 0.00 0.00 68 1013.7
20260904185818 79 185 1.0 4.0 0.00 0.00 0.00 65 1013.9
20260904185312 79 117 1.0 4.0 0.00 0.00 0.00 64 1013.9
20260904184300 79 274 0.0 5.0 0.00 0.00 0.00 65 1013.9
20260904183754 79 156 0.0 5.0 0.00 0.00 0.00 66 1014.0
20260904183249 79 236 1.0 4.0 0.00 0.00 0.00 64 1014.0
20260904182742 79 133 1.0 3.0 0.00 0.00 0.00 65 1013.9
20260904182237 79 240 1.0 3.0 0.00 0.00 0.00 63 1013.9
20260904181731 79 153 1.0 5.0 0.00 0.00 0.00 67 1013.9
20260904181225 79 69 1.0 5.0 0.00 0.00 0.00 65 1013.9
20260904180718 79 122 0.0 4.0 0.00 0.00 0.00 67 1014.0
20260904180214 79 193 1.0 5.0 0.00 0.00 0.00 66 1013.8
20260904175200 79 201 1.0 6.0 0.00 0.00 0.00 65 1013.9
20260904174659 78 198 0.0 3.0 0.00 0.00 0.00 68 1013.9
20260904174159 78 222 0.0 3.0 0.00 0.00 0.00 69 1014.0
20260904173200 79 163 1.0 5.0 0.00 0.00 0.00 63 1013.9
20260904172659 79 124 0.0 7.0 0.00 0.00 0.00 68 1013.7
20260904172158 79 319 1.0 7.0 0.00 0.00 0.00 66 1013.7
20260904171658 78 150 1.0 4.0 0.00 0.00 0.00 67 1013.8
20260904170658 78 131 1.0 6.0 0.00 0.00 0.00 67 1013.9
20260904170158 78 179 1.0 6.0 0.00 0.00 0.00 67 1013.8
20260904164658 78 20 1.0 7.0 0.00 0.00 0.00 70 1013.8
20260904163659 77 13 1.0 6.0 0.00 0.00 0.00 68 1013.9
20260904163157 77 208 1.0 7.0 0.00 0.00 0.00 69 1013.9
20260904162659 77 111 1.0 7.0 0.00 0.00 0.00 68 1014.1
20260904162158 77 256 1.0 5.0 0.00 0.00 0.00 72 1014.0
20260904161657 77 141 1.0 6.0 0.00 0.00 0.00 73 1014.0
20260904161157 76 122 1.0 6.0 0.00 0.00 0.00 70 1014.0
20260904160658 76 119 0.0 2.0 0.00 0.00 0.00 77 1014.2
20260904160158 76 103 1.0 8.0 0.00 0.00 0.00 74 1014.2
20260904155655 76 96 1.0 8.0 0.00 0.00 0.00 73 1014.1
20260904154657 76 86 0.0 4.0 0.00 0.00 0.00 76 1014.3
20260904154157 76 111 0.0 5.0 0.00 0.00 0.00 74 1014.4
20260904152657 75 108 0.0 3.0 0.00 0.00 0.00 78 1014.4
20260904152156 75 177 0.0 3.0 0.00 0.00 0.00 81 1014.5
20260904151656 75 135 0.0 9.0 0.00 0.00 0.00 84 1014.5
20260904150651 75 101 1.0 4.0 0.00 0.00 0.00 83 1014.5
20260904150148 74 124 1.0 4.0 0.00 0.00 0.00 85 1014.6
20260904145645 74 153 0.0 3.0 0.00 0.00 0.00 88 1014.6
20260904145146 74 113 1.0 3.0 0.00 0.00 0.00 89 1014.6
20260904144147 73 97 0.0 2.0 0.00 0.00 0.00 89 1014.6
20260904143643 73 134 1.0 4.0 0.00 0.00 0.00 90 1014.6
20260904143141 73 211 1.0 4.0 0.00 0.00 0.00 91 1014.6
20260904142641 73 187 1.0 5.0 0.00 0.00 0.00 93 1014.5
20260904142142 72 78 1.0 5.0 0.00 0.00 0.00 95 1014.5
20260904141140 71 18 1.0 3.0 0.00 0.00 0.00 96 1014.5
20260904135635 71 70 0.0 3.0 0.00 0.00 0.00 98 1014.3
20260904135137 71 182 0.0 3.0 0.00 0.00 0.00 98 1014.3
20260904134636 71 151 0.0 2.0 0.00 0.00 0.00 98 1014.2
20260904134135 71 111 0.0 2.0 0.00 0.00 0.00 98 1014.3
20260904133634 71 147 0.0 2.0 0.00 0.00 0.00 98 1014.2
20260904132621 71 58 0.0 6.0 0.00 0.00 0.00 98 1014.0
20260904132114 71 146 0.0 1.0 0.00 0.00 0.00 98 1014.2
20260904131609 71 200 0.0 2.0 0.00 0.00 0.00 98 1014.1
20260904131102 71 235 0.0 2.0 0.00 0.00 0.00 98 1014.1
20260904130602 71 129 0.0 1.0 0.00 0.00 0.00 98 1014.0
20260904130059 71 129 0.0 1.0 0.00 0.00 0.00 99 1014.0
20260904125559 71 139 0.0 1.0 0.00 0.00 0.00 99 1014.1
20260904125100 71 139 0.0 1.0 0.00 0.00 0.00 99 1014.0
20260904124600 70 139 0.0 0.0 0.00 0.00 0.00 98 1013.9
20260904124101 70 176 0.0 1.0 0.00 0.00 0.00 98 1013.9
20260904123559 70 176 0.0 1.0 0.00 0.00 0.00 99 1013.9
20260904123055 70 176 0.0 1.0 0.00 0.00 0.00 99 1013.8
20260904122557 0 0.0 0.0 0.00 0.00 0.00 1013.8
20260904120953 0 0.0 0.0 0.00 0.00 0.00 1013.9
20260904115858 0 0.0 0.0 0.00 0.00 0.00 1013.8
20260904115357 0 0.0 0.0 0.00 0.00 0.00 1013.9
20260904114805 0 0.0 0.0 0.00 0.00 0.00 1014.0
20260904114207 0 0.0 0.0 0.00 0.00 0.00 1014.0
20260904113654 0 0.0 0.0 0.00 0.00 0.00 1014.0
20260904112558 0 0.0 0.0 0.00 0.00 0.00 1013.8
20260904112006 0 0.0 0.0 0.00 0.00 0.00 1013.6
20260904111459 0 0.0 0.0 0.00 0.00 0.00 1013.6
20260904110954 0 0.0 0.0 0.00 0.00 0.00 1013.6
20260904110400 0 0.0 0.0 0.00 0.00 0.00 1013.6
20260904105859 0 0.0 0.0 0.00 0.00 0.00 1013.5
20260904105323 0 0.0 0.0 0.00 0.00 0.00 1013.5
20260904104758 0 0.0 0.0 0.00 0.00 0.00 1013.5
20260904104256 0 0.0 0.0 0.00 0.00 0.00 1013.6
20260904103757 0 0.0 0.0 0.00 0.00 0.00 1013.5
20260904102156 0 0.0 0.0 0.00 0.00 0.00 1013.3
20260904101604 0 0.0 0.0 0.00 0.00 0.00 1013.4
20260904101057 0 0.0 0.0 0.00 0.00 0.00 1013.3
20260904100052 0 0.0 0.0 0.00 0.00 0.00 1013.0
20260904094954 0 0.0 0.0 0.00 0.00 0.00 1013.1
20260904093808 0 0.0 0.0 0.00 0.00 0.00 1013.1
20260904093259 0 0.0 0.0 0.00 0.00 0.00 1013.1
20260904092754 0 0.0 0.0 0.00 0.00 0.00 1013.1
20260904092156 0 0.0 0.0 0.00 0.00 0.00 1013.2
20260904091603 0 0.0 0.0 0.00 0.00 0.00 1012.9
20260904091014 0 0.0 0.0 0.00 0.00 0.00 1013.0
20260904090457 0 0.0 0.0 0.00 0.00 0.00 1012.8
20260904085957 0 0.0 0.0 0.00 0.00 0.00 1012.9
20260904084957 0 0.0 0.0 0.00 0.00 0.00 1012.6
20260904084453 0 0.0 0.0 0.00 0.00 0.00 1012.6
20260904083949 0 0.0 0.0 0.00 0.00 0.00 1012.6
20260904082906 0 0.0 0.0 0.00 0.00 0.00 1012.6
20260904082402 0 0.0 0.0 0.00 0.00 0.00 1012.6
20260904081853 0 0.0 0.0 0.00 0.00 0.00 1012.5
20260904081256 0 0.0 0.0 0.00 0.00 0.00 1012.0
20260904075706 0 0.0 0.0 0.00 0.00 0.00 1012.4
20260904075155 0 0.0 0.0 0.00 0.00 0.00 1012.8
20260904074557 0 0.0 0.0 0.00 0.00 0.00 1013.0
20260904074055 0 0.0 0.0 0.00 0.00 0.00 1012.9
20260904073506 0 0.0 0.0 0.00 0.00 0.00 1013.6
20260904073003 0 0.0 0.0 0.00 0.00 0.00 1013.4
20260904072456 0 0.0 0.0 0.00 0.00 0.00 1013.7
20260904071454 0 0.0 0.0 0.00 0.00 0.00 1013.1
20260904070902 0 0.0 0.0 0.00 0.00 0.00 1013.1
20260904070352 0 0.0 0.0 0.00 0.00 0.00 1013.0
20260904065757 0 0.0 0.0 0.00 0.00 0.00 1013.0
20260904064659 0 0.0 0.0 0.00 0.00 0.00 1013.3
20260904064106 0 0.0 0.0 0.00 0.00 0.00 1013.4
20260904063558 0 0.0 0.0 0.00 0.00 0.00 1013.4
20260904063059 0 0.0 0.0 0.00 0.00 0.00 1013.4
20260904062005 0 0.0 0.0 0.00 0.00 0.00 1013.3
20260904061501 0 0.0 0.0 0.00 0.00 0.00 1013.4
20260904060958 0 0.0 0.0 0.00 0.00 0.00 1013.6
20260904060451 0 0.0 0.0 0.00 0.00 0.00 1013.7
20260904055906 0 0.0 0.0 0.00 0.00 0.00 1014.0
20260904055401 0 0.0 0.0 0.00 0.00 0.00 1014.0
20260904054850 0 0.0 0.0 0.00 0.00 0.00 1013.9
20260904054300 0 0.0 0.0 0.00 0.00 0.00 1013.9
20260904053759 0 0.0 0.0 0.00 0.00 0.00 1013.6
20260904053256 0 0.0 0.0 0.00 0.00 0.00 1013.8
20260904052706 0 0.0 0.0 0.00 0.00 0.00 1013.8
20260904052153 0 0.0 0.0 0.00 0.00 0.00 1013.9
20260904051559 0 0.0 0.0 0.00 0.00 0.00 1013.9
20260904051056 0 0.0 0.0 0.00 0.00 0.00 1013.9
20260904050505 0 0.0 0.0 0.00 0.00 0.00 1013.9
20260904050003 0 0.0 0.0 0.00 0.00 0.00 1014.0
20260904045455 0 0.0 0.0 0.00 0.00 0.00 1013.9
20260904044955 0 0.0 0.0 0.00 0.00 0.00 1014.1
20260904044449 0 0.0 0.0 0.00 0.00 0.00 1014.3
20260904043355 0 0.0 0.0 0.00 0.00 0.00 1014.4
20260904042759 0 0.0 0.0 0.00 0.00 0.00 1014.5
20260904042256 0 0.0 0.0 0.00 0.00 0.00 1014.4
20260904041756 0 0.0 0.0 0.00 0.00 0.00 1014.6
20260904041204 0 0.0 0.0 0.00 0.00 0.00 1014.7
20260904040655 0 0.0 0.0 0.00 0.00 0.00 1014.5
20260904035555 0 0.0 0.0 0.00 0.00 0.00 1014.5
20260904035001 0 0.0 0.0 0.00 0.00 0.00 1014.4
20260904034502 0 0.0 0.0 0.00 0.00 0.00 1014.5
20260904033959 0 0.0 0.0 0.00 0.00 0.00 1014.4
20260904033402 0 0.0 0.0 0.00 0.00 0.00 1014.3
20260904032903 0 0.0 0.0 0.00 0.00 0.00 1014.5
20260904031749 0 0.0 0.0 0.00 0.00 0.00 1014.6
20260904031155 0 0.0 0.0 0.00 0.00 0.00 1014.7
20260904030558 0 0.0 0.0 0.00 0.00 0.00 1014.7
20260904030009 0 0.0 0.0 0.00 0.00 0.00 1015.0
20260904025504 0 0.0 0.0 0.00 0.00 0.00 1015.0
20260904024958 0 0.0 0.0 0.00 0.00 0.00 1015.1
20260904022855 0 0.0 0.0 0.00 0.00 0.00 1015.1
20260904022259 0 0.0 0.0 0.00 0.00 0.00 1015.1
20260904015601 0 0.0 0.0 0.00 0.00 0.00 1015.4
20260904015059 0 0.0 0.0 0.00 0.00 0.00 1015.2
20260904014006 0 0.0 0.0 0.00 0.00 0.00 1015.3
20260904013457 0 0.0 0.0 0.00 0.00 0.00 1015.4
20260904012957 0 0.0 0.0 0.00 0.00 0.00 1015.3
20260904012411 0 0.0 0.0 0.00 0.00 0.00 1015.4
20260904011905 0 0.0 0.0 0.00 0.00 0.00 1015.4
20260904010303 0 104 0.0 0.0 0.00 0.00 0.00 1015.3
20260904005801 72 104 0.0 0.0 0.00 0.00 0.00 95 1015.3
20260904005256 72 104 0.0 0.0 0.00 0.00 0.00 95 1015.3
20260904004740 72 101 0.0 0.0 0.00 0.00 0.00 95 1015.3
20260904004234 72 101 0.0 0.0 0.00 0.00 0.00 95 1015.1
20260904003728 72 101 0.0 1.0 0.00 0.00 0.00 95 1015.0
20260904003222 72 101 0.0 1.0 0.00 0.00 0.00 95 1015.0
20260904002207 73 101 0.0 0.0 0.00 0.00 0.00 95 1015.2
20260904001701 73 101 0.0 0.0 0.00 0.00 0.00 94 1015.1
20260904001155 73 101 0.0 1.0 0.00 0.00 0.00 94 1015.0
20260904000144 73 101 0.0 0.0 0.00 0.00 0.00 94 1015.0
20260903235131 73 101 0.0 0.0 0.00 0.00 0.00 94 1014.6
20260903233614 74 101 0.0 0.0 0.00 0.00 0.00 93 1014.7